GFSNGP_500_rhum_105.txt.gz
RH
100 100 97 100 64 44 61 40 42 92 23 20 25 32 28 26 16 13 26 32 62 77 74 66 69 76 73 84 98 95 98 97 95 100 92 85 87 50 68 74 51 25 23 26
100 100 100 84 61 59 62 56 40 40 53 18 19 26 31 25 23 33 33 44 64 70 85 87 96 94 97 98 100 97 99 98 100 84 91 95 100 70 77 75 68 36 23 21
100 100 100 100 99 99 95 66 36 25 22 11 17 12 19 31 29 32 38 46 51 94 78 98 99 96 100 94 99 91 99 96 100 95 96 97 99 98 93 90 98 86 35 25
100 100 100 84 99 96 67 46 34 20 11 11 16 6 19 35 53 58 58 58 62 97 95 99 99 99 95 93 98 100 99 99 99 94 97 96 96 97 97 96 97 97 87 44
66 72 67 84 92 76 54 33 18 7 6 42 49 32 72 63 83 84 88 86 92 94 97 98 100 98 98 95 93 93 100 98 94 87 90 98 97 97 97 96 97 98 98 95
40 18 21 71 55 58 29 17 11 8 10 32 68 76 92 93 82 87 83 72 84 96 97 96 98 100 99 98 99 89 95 100 96 100 85 99 98 97 96 97 96 98 97 100
44 41 43 32 22 15 13 23 11 9 10 34 86 88 93 93 92 98 100 98 100 100 100 98 97 97 100 97 100 97 90 97 96 94 94 95 96 97 98 98 98 95 98 99
37 47 48 47 42 34 20 13 12 12 11 9 9 10 18 31 45 98 96 98 97 98 98 99 100 99 95 97 99 99 98 100 99 97 97 100 95 93 97 97 97 92 94 99
43 54 51 52 53 50 44 35 25 20 18 18 16 13 12 9 11 84 100 100 94 90 83 92 98 100 98 99 96 97 97 97 98 97 97 97 98 99 98 99 96 100 97 96
50 51 44 44 50 57 58 55 49 45 43 41 34 25 20 13 10 11 30 83 100 98 86 80 85 96 97 97 98 96 98 99 99 100 98 98 98 100 100 98 98 97 96 98
44 48 48 37 48 64 64 52 48 40 32 26 21 15 13 12 12 10 10 20 44 84 99 95 92 90 90 90 92 97 99 99 97 97 97 97 98 97 97 97 98 96 96 98
40 37 35 36 34 60 95 86 74 56 41 32 28 29 24 21 21 22 17 10 9 15 21 38 49 52 42 61 71 79 78 80 83 77 80 88 87 91 93 95 94 97 98 99
28 28 30 42 69 79 92 92 82 77 68 57 43 42 44 46 51 52 61 68 30 15 44 69 72 91 100 90 69 69 70 69 67 69 64 60 56 54 53 52 53 52 52 51
42 35 29 30 58 84 80 78 73 76 78 74 61 45 51 59 48 43 47 53 52 53 54 56 60 70 71 80 87 86 82 77 73 71 67 63 59 54 50 48 45 45 42 41
75 91 89 87 100 94 88 87 94 90 82 82 80 81 69 58 50 47 44 41 45 51 46 38 35 37 43 53 61 67 74 91 94 94 90 84 79 72 66 63 61 61 59 57
82 100 100 100 100 100 100 100 100 100 100 100 91 88 72 60 50 40 34 33 32 32 34 32 35 32 27 30 37 51 61 56 58 74 77 72 71 70 63 64 66 62 59 55
94 83 83 88 100 100 100 100 97 91 89 85 83 76 67 48 32 26 22 20 22 22 25 27 30 32 31 32 34 40 48 50 51 53 51 50 53 56 55 54 52 49 44 37
69 65 62 60 62 66 67 66 62 56 51 43 37 35 37 41 51 52 52 50 47 49 52 51 48 42 37 34 34 34 34 37 45 49 50 46 45 44 44 44 40 39 40 39
71 73 74 66 54 49 51 49 43 45 50 50 48 46 42 41 39 37 36 37 39 40 43 46 47 47 48 51 55 56 56 55 56 55 54 54 56 56 56 57 58 58 58 59
89 89 82 76 70 72 67 58 49 41 36 31 29 28 27 27 28 30 31 32 32 32 31 30 30 30 30 31 36 42 50 51 51 52 53 55 56 56 57 57 58 57 56 55
70 60 49 38 34 34 35 37 36 34 32 32 30 31 34 35 36 36 35 33 30 27 24 23 25 28 30 32 32 32 30 29 29 28 28 29 29 31 32 30 30 29 30 30
36 38 39 40 40 40 40 39 38 37 37 36 37 39 37 31 24 19 15 13 13 12 12 12 12 12 12 13 15 17 20 23 24 25 25 25 24 22 21 21 20 19 19 19
45 44 42 40 40 39 39 39 39 39 40 41 32 23 18 15 14 12 11 9 8 8 8 8 8 8 9 10 11 11 11 11 12 12 13 13 13 13 13 13 13 12 12 12
49 48 48 46 45 44 43 45 45 42 30 21 18 16 13 9 8 9 10 11 12 13 14 14 14 14 13 12 12 11 10 10 10 10 10 10 10 10 10 11 11 11 12 12
56 54 52 54 52 50 50 47 36 26 21 20 15 10 9 10 13 16 17 18 18 16 17 18 18 19 18 18 17 17 18 18 18 16 15 14 14 13 13 13 12 13 14 15
59 58 57 58 58 55 50 38 27 24 21 14 10 11 13 18 21 23 24 25 25 24 23 22 21 20 19 21 22 23 23 22 22 21 19 19 19 19 20 20 21 22 23 24
66 67 64 64 64 57 44 30 26 22 14 11 12 15 21 24 29 32 33 33 33 32 31 31 29 27 26 25 27 27 26 22 20 19 20 22 23 24 25 26 28 29 30 31

GFSNGP_500_rhum_108.txt.gz
RH
100 98 100 100 100 100 100 100 100 98 81 83 95 36 34 28 29 28 17 8 8 13 15 18 26 52 48 50 41 48 65 77 85 97 94 97 96 96 98 100 70 61 48 32
100 100 100 100 100 100 98 96 95 100 96 86 57 24 23 26 32 31 24 21 16 14 21 22 35 60 70 66 65 62 66 88 91 78 85 90 96 97 98 98 95 56 78 80
100 100 100 100 100 88 84 83 86 99 91 58 37 15 13 15 16 30 37 35 30 28 23 27 52 67 86 82 93 96 94 95 89 90 98 97 95 97 97 98 98 69 81 86
100 100 100 100 99 93 98 100 99 95 47 25 18 11 10 8 25 36 51 68 73 51 32 51 68 86 100 97 92 98 100 100 100 100 98 96 96 96 96 96 100 86 76 84
100 100 100 86 95 94 95 86 62 40 20 16 26 44 53 43 70 73 64 82 76 68 70 93 98 95 98 99 98 99 100 100 100 99 97 98 97 97 96 97 98 94 94 97
94 89 99 90 90 80 93 61 44 21 11 6 17 39 74 100 88 83 74 72 75 57 56 71 90 94 96 100 100 100 100 99 97 100 88 81 85 96 92 94 96 97 97 97
70 88 56 38 25 28 34 51 35 15 10 10 15 47 88 96 87 89 65 93 93 90 81 73 72 92 96 98 99 100 93 98 86 99 97 100 88 97 100 87 98 94 96 96
43 54 67 60 46 42 35 27 23 18 14 10 9 16 39 34 12 14 24 82 84 77 77 80 81 92 96 98 98 97 98 100 100 99 100 97 94 93 99 92 96 97 95 96
28 37 42 48 51 51 45 40 31 20 17 17 15 14 13 13 14 14 11 16 77 88 84 87 72 79 94 98 99 98 96 97 100 99 100 100 97 98 98 77 98 98 98 98
31 37 39 43 44 48 54 60 59 53 48 45 44 43 41 37 28 23 19 13 10 16 24 55 72 88 87 88 96 97 98 99 98 98 99 99 98 99 98 98 100 100 99 96
33 38 46 45 46 40 39 47 52 55 53 48 44 40 36 30 26 18 14 14 11 10 9 26 43 38 37 34 37 57 69 84 93 96 97 99 98 98 98 98 99 99 98 98
38 40 40 39 40 39 33 40 73 74 71 65 50 41 36 30 26 21 18 14 15 20 14 10 9 13 15 16 28 38 41 43 58 69 79 90 95 96 98 98 98 98 98 98
34 38 39 38 36 32 45 62 73 85 92 84 75 65 52 42 43 39 36 36 34 40 46 40 31 32 32 41 49 38 62 87 75 62 63 64 64 80 91 95 94 93 96 98
33 32 28 22 22 26 48 75 79 82 79 81 83 84 79 72 55 46 47 41 40 43 50 55 54 47 41 42 47 54 68 75 78 75 68 75 68 68 68 69 68 63 61 63
62 54 57 51 57 50 48 47 76 78 74 80 84 85 91 87 84 76 70 62 52 48 43 40 39 37 34 36 32 44 50 47 48 54 59 74 81 89 86 82 77 70 66 60
43 50 62 80 94 96 93 98 96 90 84 87 99 99 100 100 85 73 66 59 51 41 32 29 24 24 26 27 26 25 22 23 26 34 46 52 59 65 81 93 98 97 91 90
82 95 89 77 68 72 75 87 94 100 97 88 85 79 77 73 52 44 39 30 28 30 26 23 18 16 18 24 24 23 22 21 25 29 29 30 32 46 56 57 65 71 64 60
72 75 69 61 62 61 52 44 42 45 47 45 46 48 42 36 31 31 30 29 27 25 24 25 26 24 26 30 32 36 39 37 36 38 34 32 32 33 33 36 42 48 53 55
63 56 56 63 69 61 51 41 37 42 50 54 52 47 40 35 32 30 29 28 27 26 26 25 25 25 25 25 26 28 29 32 35 38 40 42 46 48 47 44 43 44 44 44
80 87 83 74 63 54 48 40 36 34 34 35 35 35 35 33 32 30 30 30 29 29 29 28 27 27 26 25 24 25 25 24 24 25 26 28 30 32 38 42 44 46 46 47
56 43 37 35 38 41 41 40 39 38 36 35 32 30 30 31 32 33 33 30 25 22 19 17 16 16 15 15 14 13 13 14 16 19 22 26 28 29 30 31 31 30 30 30
44 49 48 45 43 42 42 40 38 38 38 37 37 36 36 34 29 24 20 18 16 15 13 11 10 10 9 9 9 9 9 9 10 10 11 11 14 18 23 26 28 29 29 28
52 51 48 44 41 38 38 40 41 41 40 39 39 37 30 23 21 19 16 12 9 8 9 9 10 10 10 10 10 9 8 8 8 8 8 9 10 12 12 12 12 13 14 14
52 46 44 46 46 43 44 43 45 46 44 41 34 26 23 20 15 11 10 11 12 15 17 17 18 17 16 15 14 14 15 16 16 15 13 12 12 11 11 11 10 10 10 10
55 50 50 51 49 50 51 52 51 49 44 36 27 23 16 11 11 12 13 17 21 23 26 26 25 24 23 22 20 19 18 18 18 17 17 18 20 20 19 18 17 16 15 14
63 64 60 60 56 56 55 54 54 48 40 29 24 15 10 12 14 15 19 24 29 33 34 34 34 33 31 29 28 27 24 22 22 22 23 23 23 23 22 20 20 19 19 20
71 68 66 65 67 67 67 65 56 47 33 28 18 11 11 13 16 17 22 28 37 42 43 40 40 39 37 34 33 35 35 31 30 30 30 26 23 21 21 24 26 29 31 34

GFSNGP_500_rhum_114.txt.gz
RH
98 99 100 85 100 100 100 100 100 100 100 100 100 96 98 85 100 80 47 34 30 28 25 19 14 13 14 16 14 17 14 13 34 36 35 48 66 78 91 99 97 77 59 81
100 100 100 100 100 100 100 100 100 100 99 100 99 99 94 67 24 23 29 21 20 17 16 15 12 10 10 9 10 11 15 16 15 21 36 38 38 61 80 99 95 64 73 87
100 100 100 100 100 100 100 100 100 100 95 92 93 91 84 80 64 21 13 12 14 24 28 27 22 20 15 9 9 12 13 16 18 28 31 37 38 48 65 77 91 83 76 81
100 100 100 100 100 100 100 100 99 100 99 95 91 94 69 35 41 20 16 16 16 19 35 63 64 58 42 25 22 38 22 20 41 48 61 57 50 54 50 72 85 97 94 91
100 100 100 100 100 100 100 100 100 100 98 97 96 99 87 46 51 60 74 75 68 64 66 70 61 57 60 55 58 48 51 85 98 91 80 74 90 94 74 100 78 93 84 97
100 96 100 99 92 84 82 84 80 80 85 75 72 71 27 34 48 49 81 83 73 68 78 82 75 71 69 72 68 64 79 96 98 98 100 97 97 84 99 99 79 89 89 93
100 100 95 83 75 60 57 59 75 79 85 76 47 26 29 25 9 11 45 68 25 29 52 75 74 67 65 65 62 66 90 94 98 99 97 97 98 99 96 89 97 98 97 72
100 100 98 84 55 49 48 44 52 61 53 50 36 38 16 11 10 12 13 12 10 11 13 29 46 67 62 62 64 59 62 75 82 91 89 98 98 98 99 100 99 100 98 91
75 58 54 51 47 42 44 44 45 44 40 41 41 35 32 29 29 30 33 33 34 34 29 26 19 18 17 22 28 31 41 52 51 74 84 75 91 97 98 95 97 98 99 99
28 27 25 23 24 28 30 31 36 40 44 49 50 49 48 47 47 42 39 37 34 32 31 31 27 22 17 16 19 18 18 18 20 27 32 46 94 98 94 96 99 95 98 99
22 21 19 16 15 12 14 20 20 30 36 39 40 41 46 49 52 50 46 43 40 35 30 27 22 22 15 13 13 13 18 15 11 12 13 14 13 18 55 95 98 100 100 100
17 16 14 13 12 12 12 16 20 20 27 35 38 39 43 52 67 69 61 54 48 45 46 45 39 36 27 18 17 17 16 16 20 22 16 16 18 18 17 16 24 69 90 95
17 16 15 14 13 14 20 19 23 31 34 37 39 39 40 48 58 68 77 79 72 69 68 64 58 56 48 43 36 28 20 22 23 21 21 21 19 19 19 19 26 28 32 48
48 37 31 30 28 32 30 26 24 24 25 26 30 43 48 56 60 59 64 72 73 67 62 62 64 65 64 65 63 59 49 37 28 24 24 24 22 24 26 26 27 32 38 46
74 59 36 28 24 23 23 24 32 34 32 37 42 47 58 64 64 59 61 65 65 62 57 54 56 60 66 66 68 65 58 51 51 49 42 33 28 25 28 30 26 25 29 34
48 43 36 32 32 36 42 43 48 60 60 57 57 54 48 42 38 34 31 28 27 27 28 28 28 28 27 26 28 34 39 43 45 40 36 36 34 27 24 25 25 26 27 25
71 56 48 61 67 64 59 56 46 45 45 40 37 36 34 35 35 36 36 35 35 35 34 34 35 35 35 34 34 34 33 32 30 30 30 30 32 30 24 22 21 19 19 17
70 69 66 63 54 50 46 53 62 57 51 43 39 36 34 32 33 32 31 30 31 33 33 34 32 31 29 27 25 24 24 25 27 27 27 28 28 27 27 26 25 23 22 21
73 80 72 65 56 64 54 40 42 41 38 35 33 31 31 30 30 28 27 26 25 28 31 30 30 29 28 26 24 22 21 21 21 21 22 22 21 21 21 20 20 20 21 22
70 72 83 73 44 46 48 44 42 42 39 36 33 31 28 30 30 30 30 28 28 29 26 21 19 18 16 16 15 15 16 18 18 18 17 17 16 16 16 15 15 16 16 17
74 50 43 53 53 50 51 51 46 44 43 41 40 37 36 38 37 35 36 34 35 33 25 22 14 8 8 8 8 9 9 9 9 9 8 9 9 9 10 9 9 9 10 12
50 54 58 59 58 58 54 52 50 47 46 46 45 43 43 44 44 42 43 42 41 34 29 20 10 10 10 10 12 13 13 15 16 15 14 14 13 12 12 11 10 9 9 8
60 62 64 64 63 60 60 58 54 53 52 53 52 50 50 50 52 53 55 51 49 38 33 20 11 12 12 13 15 18 22 25 26 24 24 23 22 20 19 17 15 15 15 15
58 62 58 54 55 59 65 66 63 60 61 63 64 62 62 62 64 64 64 62 59 47 36 21 13 14 15 16 19 26 32 35 36 35 33 30 28 26 25 25 23 20 19 18
51 47 45 52 60 70 70 68 66 69 75 78 79 78 76 73 72 73 74 72 68 56 41 23 15 15 17 22 26 34 43 48 44 42 41 39 34 31 29 29 30 28 26 26
45 45 58 61 70 73 67 63 68 75 81 83 80 78 76 76 80 85 81 80 77 64 45 26 18 18 21 25 32 38 51 58 55 49 47 47 42 37 35 36 38 36 35 34
52 69 74 77 80 71 56 54 65 77 80 78 81 84 84 84 87 87 87 89 85 68 45 28 20 21 25 29 35 41 46 58 64 59 53 52 51 47 44 42 42 46 44 40

GFSNGP_500_rhum_117.txt.gz
RH
97 76 96 79 100 100 99 100 100 100 100 100 100 99 98 94 100 98 99 99 99 98 94 88 75 39 25 22 23 67 53 24 18 18 17 23 42 57 67 74 78 83 89 91
100 100 95 89 100 100 100 100 100 100 100 100 100 100 100 100 94 99 87 57 38 39 42 30 22 21 19 18 14 13 14 18 18 19 19 18 29 58 70 71 69 67 66 87
100 100 100 96 100 100 100 100 100 100 98 100 100 96 95 100 99 56 35 17 15 16 24 28 33 32 26 18 13 9 9 10 9 11 13 14 36 44 41 54 58 48 58 97
97 100 100 98 100 100 100 100 100 97 95 100 99 99 93 84 87 61 42 32 35 34 32 45 51 41 36 45 23 16 14 11 12 13 23 24 23 32 45 42 43 48 92 76
100 100 100 100 100 99 99 100 98 94 93 98 100 100 100 94 84 85 75 72 72 71 60 61 56 56 48 47 47 41 39 30 23 13 16 20 31 38 39 45 46 99 95 72
93 100 100 100 99 97 93 90 95 96 94 71 47 48 51 35 63 64 57 70 86 71 66 76 80 72 68 58 54 51 53 53 65 49 34 79 92 86 71 71 90 76 77 71
100 100 100 99 89 52 49 57 67 72 66 76 73 63 30 15 16 20 10 13 45 59 19 39 57 67 68 61 59 60 62 66 85 87 97 88 65 76 78 92 96 97 99 97
100 100 100 100 72 51 49 44 42 43 42 38 34 26 27 28 21 14 11 11 11 11 10 11 14 22 20 32 46 27 32 43 42 51 63 77 94 97 99 97 100 99 98 98
100 99 88 85 71 58 51 47 45 44 44 43 44 46 49 46 40 31 28 24 22 22 25 28 31 32 30 30 27 24 24 24 23 20 24 39 44 54 74 99 99 99 100 92
85 66 34 33 32 32 33 33 32 30 30 29 29 30 33 33 37 39 42 44 45 43 38 33 29 27 27 28 28 29 30 26 26 23 21 20 16 17 18 26 65 91 86 69
28 28 27 23 18 15 13 14 14 13 12 12 14 17 19 20 24 28 32 33 35 36 36 37 38 36 34 30 24 24 22 20 22 20 21 20 14 16 20 20 18 18 19 63
21 18 17 15 13 12 12 11 12 11 11 11 12 14 13 16 20 26 29 32 36 38 41 42 42 41 38 34 30 29 27 22 18 16 15 14 17 21 23 18 18 19 19 19
27 19 16 16 14 13 13 12 11 11 11 13 14 17 20 22 26 29 33 35 36 37 39 41 40 40 42 42 43 43 45 42 37 31 26 22 18 18 18 22 22 18 16 17
48 31 24 28 20 16 15 17 19 20 20 20 21 22 22 22 20 19 20 23 22 27 30 34 36 37 38 39 38 38 38 40 48 52 54 52 42 31 24 21 20 22 22 22
55 52 56 52 40 28 23 20 18 17 16 16 22 33 40 41 41 40 37 34 31 29 28 27 27 27 27 27 27 27 26 25 24 23 23 30 44 53 51 43 35 32 28 26
73 61 45 34 27 26 26 24 25 28 28 30 32 34 34 38 34 30 30 29 28 26 24 24 23 23 22 22 23 25 27 29 29 29 29 28 27 24 25 30 35 41 38 34
80 56 42 42 44 45 38 32 37 45 48 47 42 38 36 33 30 26 25 24 23 22 21 22 22 23 23 21 21 22 22 22 25 28 28 27 26 26 29 31 32 31 28 28
42 41 51 50 48 30 33 50 44 39 39 35 33 33 33 32 29 27 25 24 27 27 27 28 26 27 27 25 25 23 20 17 17 18 19 23 24 23 22 21 22 24 28 30
42 56 62 59 46 58 51 43 44 38 39 42 42 39 37 36 34 32 32 32 33 32 33 33 34 34 32 30 27 25 17 12 9 9 9 10 12 13 14 14 15 16 18 20
56 68 66 70 70 48 50 45 47 51 48 45 44 43 42 40 39 38 37 37 37 37 40 40 40 40 38 36 35 29 15 10 9 8 8 8 8 8 8 9 11 14 16 18
64 70 73 48 55 53 54 57 56 52 50 48 45 44 44 43 41 40 41 42 43 47 48 50 51 49 48 44 42 33 15 12 11 11 12 12 13 13 12 11 11 10 10 10
48 50 57 57 59 61 58 60 60 58 57 55 52 49 48 47 48 47 48 50 53 55 57 62 60 60 57 57 47 32 16 14 14 15 16 20 22 23 23 22 20 19 18 16
58 59 61 62 52 52 63 69 68 64 60 59 59 60 60 58 59 58 59 60 63 68 70 71 72 66 66 66 48 32 17 16 19 21 25 35 38 37 34 32 29 27 25 22
58 58 56 47 49 65 72 74 73 66 61 61 64 69 75 76 75 74 74 71 72 76 76 80 74 75 78 66 48 30 19 20 25 31 36 50 50 47 44 41 39 34 30 28
51 52 49 49 69 80 82 80 76 69 65 61 63 75 88 91 84 82 81 78 82 83 83 80 81 86 77 61 43 28 23 24 28 34 40 51 62 58 51 48 47 42 37 34
50 48 51 56 72 84 84 82 84 81 74 66 66 84 96 100 93 91 86 88 92 89 88 89 94 78 66 52 37 30 28 28 31 36 41 47 56 65 61 55 52 50 46 43
54 52 52 57 74 83 83 85 86 82 75 66 72 95 100 100 96 95 92 94 92 92 96 92 63 52 51 44 37 35 36 36 36 40 43 48 56 62 64 64 59 56 54 50

GFSNGP_500_rhum_123.txt.gz
RH
36 47 76 79 78 78 100 100 100 97 99 100 100 100 100 100 100 100 100 95 98 100 97 100 99 100 95 91 86 85 89 83 72 57 73 77 72 67 62 62 61 59 50 47
66 51 97 100 100 98 99 100 89 100 100 100 100 100 100 100 100 100 100 100 100 100 100 100 100 88 88 90 86 88 90 78 66 49 57 60 61 60 61 60 55 61 64 62
97 94 80 100 100 97 100 100 100 100 100 100 100 98 100 100 100 100 100 100 100 100 100 100 100 91 83 90 86 50 36 31 26 42 50 34 22 26 34 56 62 47 27 26
100 100 100 100 100 100 100 100 100 100 100 100 100 100 100 100 100 99 100 100 100 100 100 98 99 98 94 80 65 58 47 50 53 47 40 31 24 15 12 13 29 41 25 21
89 100 100 98 100 99 100 100 100 98 92 98 100 100 100 100 100 100 97 100 99 99 100 99 98 90 84 63 50 50 59 61 61 62 63 65 68 68 61 29 16 15 15 26
91 100 100 100 100 100 100 100 100 94 85 65 41 48 53 65 74 85 94 85 54 49 40 56 70 57 65 77 78 78 75 70 64 64 65 61 58 61 76 92 64 39 35 44
98 99 100 100 100 93 95 98 92 83 81 85 77 66 52 41 24 19 16 16 15 13 14 16 19 20 14 17 25 34 38 27 28 31 21 24 24 24 29 44 72 94 99 82
100 100 100 100 100 70 54 58 53 58 56 46 42 34 34 35 34 34 36 38 38 38 37 34 28 25 23 22 21 20 20 21 22 22 21 21 21 20 20 21 23 30 47 62
100 98 100 100 100 85 69 54 49 47 47 47 46 45 41 34 28 23 18 16 15 12 11 10 10 11 12 14 17 20 22 25 26 26 27 28 28 29 29 29 28 26 23 24
100 99 99 100 100 100 90 66 56 45 38 33 22 14 12 11 10 9 8 7 7 7 6 6 7 6 6 6 6 6 7 8 7 10 14 17 19 22 24 25 26 27 28 26
89 99 100 99 100 99 86 55 39 28 16 12 11 10 11 11 10 9 8 7 7 7 8 10 9 9 9 11 12 11 14 14 14 16 17 19 25 28 29 29 27 25 24 23
95 88 98 96 60 47 36 30 23 16 12 12 12 13 13 11 9 9 9 10 11 12 12 12 13 13 13 13 13 14 14 14 13 13 13 12 12 13 15 20 25 30 30 29
79 97 59 51 46 30 26 22 19 16 15 15 13 12 12 11 11 12 11 10 10 11 13 14 16 16 16 16 16 16 16 15 14 14 14 14 14 12 11 10 10 11 15 23
50 58 96 100 56 40 35 27 22 20 19 17 15 15 15 12 11 13 16 18 19 19 19 18 17 18 20 21 21 19 19 18 18 18 17 17 16 15 14 13 12 11 10 10
43 73 65 88 96 96 88 61 31 23 18 17 16 14 14 20 22 21 21 23 26 27 26 26 25 24 23 23 23 23 23 23 22 22 21 21 20 19 18 17 15 13 12 12
41 65 94 96 94 82 62 40 26 22 19 18 22 30 25 24 27 29 32 33 33 32 28 25 24 22 23 24 24 24 25 27 29 29 30 28 28 27 25 23 20 18 14 11
46 65 92 100 97 78 58 35 29 25 29 38 33 27 27 34 36 36 37 36 32 30 29 29 29 31 32 33 33 34 36 38 38 37 36 37 38 38 36 32 27 22 16 11
33 57 100 100 99 92 67 49 34 42 42 36 33 37 42 42 42 42 40 38 39 38 37 39 40 40 41 42 43 44 43 44 44 46 46 48 50 47 41 38 33 25 17 13
35 57 100 100 87 70 62 58 52 51 47 48 50 52 52 52 52 49 50 49 47 45 45 44 45 47 50 50 49 49 50 52 52 52 56 52 42 36 34 31 32 28 23 19
34 46 92 84 77 74 65 59 61 59 59 63 60 59 60 57 55 55 54 54 55 56 54 54 54 55 53 51 54 56 60 60 60 58 42 26 19 18 22 32 40 35 23 18
24 35 50 71 76 68 63 65 58 64 69 68 68 66 65 63 62 59 59 60 60 61 60 60 60 57 56 60 63 69 69 66 56 31 17 16 17 21 33 48 40 26 23 24
48 57 67 68 60 61 66 56 58 68 73 76 77 73 69 67 67 66 65 62 64 68 68 66 64 63 67 70 76 78 72 52 26 16 17 17 19 30 44 42 34 31 33 36
63 63 57 54 60 64 60 51 53 64 69 71 74 73 70 68 67 65 63 63 70 74 74 72 72 73 77 80 85 74 48 23 18 19 20 20 26 38 41 39 36 38 39 42
50 53 58 59 61 61 57 52 54 58 62 62 66 75 72 66 62 62 63 67 79 80 78 79 80 84 87 92 78 45 20 18 21 23 24 25 29 34 37 38 37 37 40 42
61 60 59 58 56 54 53 52 56 60 60 62 76 79 65 57 61 60 67 80 87 84 82 87 89 93 96 79 42 19 18 22 25 27 30 32 32 32 34 34 35 36 38 43
59 60 61 60 61 61 61 62 64 63 66 74 72 56 53 58 57 62 82 90 89 88 90 96 98 99 76 38 18 18 21 25 28 30 33 35 37 38 38 39 39 40 42 44
47 51 50 52 57 60 62 64 64 63 63 54 48 53 58 51 60 87 94 94 96 95 99 100 100 70 33 16 17 20 23 27 32 36 38 40 40 41 44 45 45 46 48 50